This is the latest recevied weather packets stored in our database for station/object N7SWJ. If no packets are shown the sender has not sent any weather packets the latest 10 day(s).
| Time | Temp. | Humidity | Pressure | Rain* | Wind** | Luminosity | Snow |
|---|---|---|---|---|---|---|---|
| 1778001644 | 3.89° C | 93% | 1017.1 hPa | 0 mm | - | 157 W/m² | - |
| 1778001340 | 3.33° C | 94% | 1017.1 hPa | 0 mm | - | 124 W/m² | - |
| 1778001037 | 3.33° C | 94% | 1017.1 hPa | 0 mm | - | 115 W/m² | - |
| 1778000733 | 3.33° C | 94% | 1017 hPa | 0 mm | - | 130 W/m² | - |
| 1778000429 | 3.89° C | 94% | 1016.9 hPa | 0 mm | - | 171 W/m² | - |
| 1778000125 | 3.33° C | 94% | 1017.1 hPa | 0 mm | - | 193 W/m² | - |
| 1777999820 | 3.33° C | 94% | 1016.9 hPa | 0 mm | - | 223 W/m² | - |
| 1777999517 | 3.33° C | 95% | 1017.3 hPa | 0 mm | - | 272 W/m² | - |
| 1777999215 | 2.78° C | 95% | 1017.4 hPa | 0 mm | - | 263 W/m² | - |
| 1777998913 | 2.78° C | 95% | 1017.1 hPa | 0 mm | - | 219 W/m² | - |
| 1777998610 | 3.33° C | 95% | 1017.1 hPa | 0 mm | - | 221 W/m² | - |
| 1777998303 | 2.78° C | 95% | 1017.4 hPa | 0 mm | - | 232 W/m² | - |
| 1777998000 | 2.22° C | 95% | 1017.5 hPa | 0 mm | - | 208 W/m² | - |
| 1777997696 | 2.78° C | 95% | 1017.5 hPa | 0 mm | - | 196 W/m² | - |
| 1777997393 | 2.22° C | 95% | 1017.6 hPa | 1.78 mm | - | 179 W/m² | - |
| 1777997092 | 2.22° C | 95% | 1017.5 hPa | 1.78 mm | - | 169 W/m² | - |
| 1777996789 | 2.22° C | 95% | 1017.5 hPa | 1.27 mm | - | 184 W/m² | - |
| 1777996484 | 2.22° C | 95% | 1017.6 hPa | 1.27 mm | - | 164 W/m² | - |
| 1777996182 | 1.67° C | 95% | 1017.7 hPa | 3.05 mm | - | 171 W/m² | - |
| 1777995878 | 1.67° C | 95% | 1017.6 hPa | 3.05 mm | - | 171 W/m² | - |
| 1777995574 | 1.67° C | 95% | 1017.7 hPa | 3.05 mm | - | 145 W/m² | - |
| 1777995272 | 1.67° C | 95% | 1017.8 hPa | 3.05 mm | - | 136 W/m² | - |
| 1777994968 | 1.11° C | 95% | 1017.7 hPa | 3.05 mm | - | 128 W/m² | - |
| 1777994665 | 1.11° C | 95% | 1017.6 hPa | 3.05 mm | - | 109 W/m² | - |
| 1777994359 | 1.11° C | 95% | 1017.6 hPa | 3.05 mm | - | 91 W/m² | - |
* Rain latest hour (hover to see other rain measurements)
** Current wind speed in m/s (hover to see current wind gust speed)